GW4712 Weather Reports


Display with metric or nautical units.
time (UTC)temp
F
wind
direction
speed
MPH
gust
MPH
rain 1hr
in
rain 24hr
in
rain mn
in
humidity
%
barometer
mb
20260509154024 60 135 0.0 0.0 0.00 0.00 0.00 72 1010.5
20260509153520 60 288 0.0 1.0 0.00 0.00 0.00 74 1010.5
20260509153017 60 307 2.0 3.0 0.00 0.00 0.00 73 1010.4
20260509152513 60 310 2.0 2.0 0.00 0.00 0.00 72 1010.5
20260509152009 60 133 1.0 2.0 0.00 0.00 0.00 72 1010.5
20260509151506 61 233 0.0 4.0 0.00 0.00 0.00 71 1010.3
20260509151005 61 63 3.0 3.0 0.00 0.00 0.00 72 1010.5
20260509150501 61 8 1.0 1.0 0.00 0.00 0.00 71 1010.5
20260509150000 61 88 2.0 7.0 0.00 0.00 0.00 70 1010.4
20260509145455 61 14 1.0 1.0 0.00 0.00 0.00 73 1010.5
20260509144950 62 291 2.0 3.0 0.00 0.00 0.00 69 1010.7
20260509144448 60 305 0.0 1.0 0.00 0.00 0.00 75 1010.6
20260509143944 60 154 1.0 2.0 0.00 0.00 0.00 73 1010.8
20260509143442 60 294 0.0 0.0 0.00 0.00 0.00 74 1010.8
20260509142938 60 75 2.0 2.0 0.00 0.00 0.00 73 1010.7
20260509142434 60 105 2.0 2.0 0.00 0.00 0.00 74 1010.7
20260509141930 59 49 0.0 0.0 0.00 0.00 0.00 75 1010.6
20260509141427 59 48 1.0 2.0 0.00 0.00 0.00 75 1010.5
20260509140924 59 265 0.0 0.0 0.00 0.00 0.00 75 1010.8
20260509140420 59 266 0.0 0.0 0.00 0.00 0.00 76 1010.9
20260509135919 59 235 2.0 3.0 0.00 0.00 0.00 76 1010.9
20260509135416 59 235 2.0 3.0 0.00 0.00 0.00 76 1010.9
20260509134913 59 228 1.0 2.0 0.00 0.00 0.00 77 1010.9
20260509134410 0 0.0 0.0 0.00 0.00 0.00 1010.6
20260509133907 0 0.0 0.0 0.00 0.00 0.00 1010.7
20260509133404 0 0.0 0.0 0.00 0.00 0.00 1010.8
20260509132903 0 0.0 0.0 0.00 0.00 0.00 1010.9
20260509132400 0 0.0 0.0 0.00 0.00 0.00 1010.9
20260509131857 0 0.0 0.0 0.00 0.00 0.00 1010.8
20260509131354 0 0.0 0.0 0.00 0.00 0.00 1011.1
20260509130851 53 278 0.0 0.0 0.00 0.00 0.00 92 1011.2
20260509130346 53 278 0.0 0.0 0.00 0.00 0.00 92 1011.2
20260509125843 0 0.0 0.0 0.00 0.00 0.00 1011.2
20260509125339 0 0.0 0.0 0.00 0.00 0.00 1011.2
20260509124836 0 0.0 0.0 0.00 0.00 0.00 1011.4
20260509124333 0 0.0 0.0 0.00 0.00 0.00 1011.4
20260509123831 53 278 0.0 0.0 0.00 0.00 0.00 92 1011.5
20260509123327 53 278 0.0 0.0 0.00 0.00 0.00 92 1011.5
20260509122823 53 278 0.0 0.0 0.00 0.00 0.00 93 1011.4
20260509122320 52 278 0.0 0.0 0.00 0.00 0.00 93 1011.4
20260509121817 52 278 0.0 0.0 0.00 0.00 0.00 94 1011.3
20260509121314 52 278 0.0 0.0 0.00 0.00 0.00 94 1011.3
20260509120813 52 278 0.0 0.0 0.00 0.00 0.00 94 1011.3
20260509120310 52 278 0.0 0.0 0.00 0.00 0.00 94 1011.3
20260509115808 51 274 0.0 0.0 0.00 0.00 0.00 94 1011.2
20260509115307 51 274 0.0 0.0 0.00 0.00 0.00 94 1011.3
20260509114803 51 274 0.0 0.0 0.00 0.00 0.00 95 1011.3
20260509114301 51 256 0.0 0.0 0.00 0.00 0.00 94 1011.1
20260509113800 51 256 0.0 0.0 0.00 0.00 0.00 94 1011.1
20260509113256 51 256 0.0 0.0 0.00 0.00 0.00 94 1011.1
20260509112753 51 310 0.0 0.0 0.00 0.00 0.00 94 1010.8
20260509112250 51 310 1.0 1.0 0.00 0.00 0.00 94 1010.9
20260509111747 51 310 1.0 1.0 0.00 0.00 0.00 94 1010.8
20260509111244 51 310 0.0 0.0 0.00 0.00 0.00 93 1010.7
20260509110742 51 310 0.0 0.0 0.00 0.00 0.00 93 1010.9
20260509110238 51 310 0.0 0.0 0.00 0.00 0.00 93 1010.9
20260509105736 51 309 0.0 0.0 0.00 0.00 0.00 93 1010.7
20260509105234 51 310 0.0 0.0 0.00 0.00 0.00 92 1010.7
20260509104730 51 310 0.0 0.0 0.00 0.00 0.00 92 1010.8
20260509104227 51 310 0.0 0.0 0.00 0.00 0.00 92 1010.7
20260509103726 51 310 0.0 0.0 0.00 0.00 0.00 93 1010.7
20260509103222 0 0.0 0.0 0.00 0.00 0.00 1010.9
20260509102721 0 0.0 0.0 0.00 0.00 0.00 1010.8
20260509102217 0 0.0 0.0 0.00 0.00 0.00 1010.8
20260509101714 0 0.0 0.0 0.00 0.00 0.00 1010.7
20260509101210 51 310 0.0 0.0 0.00 0.00 0.00 94 1010.9
20260509100708 51 310 0.0 0.0 0.00 0.00 0.00 94 1010.7
20260509100205 51 310 0.0 0.0 0.00 0.00 0.00 93 1010.7
20260509095702 51 310 0.0 0.0 0.00 0.00 0.00 92 1010.7
20260509095159 51 310 0.0 0.0 0.00 0.00 0.00 92 1010.8
20260509094655 51 310 0.0 0.0 0.00 0.00 0.00 92 1010.5
20260509094152 51 310 0.0 0.0 0.00 0.00 0.00 92 1010.7
20260509093651 51 309 0.0 0.0 0.00 0.00 0.00 91 1010.7
20260509093147 51 309 0.0 0.0 0.00 0.00 0.00 91 1010.9
20260509092646 51 309 0.0 0.0 0.00 0.00 0.00 92 1010.6
20260509092143 51 309 0.0 0.0 0.00 0.00 0.00 92 1010.9
20260509091641 51 309 0.0 0.0 0.00 0.00 0.00 91 1011.1
20260509091136 51 309 0.0 0.0 0.00 0.00 0.00 91 1010.8
20260509090635 51 309 0.0 0.0 0.00 0.00 0.00 92 1010.9
20260509090131 51 309 0.0 0.0 0.00 0.00 0.00 92 1010.8
20260509085629 51 309 0.0 0.0 0.00 0.00 0.00 93 1011.3
20260509085124 51 309 0.0 0.0 0.00 0.00 0.00 93 1011.1
20260509084622 51 310 0.0 0.0 0.00 0.00 0.00 91 1011.3
20260509084119 51 310 0.0 0.0 0.00 0.00 0.00 91 1010.9
20260509083616 51 310 0.0 0.0 0.00 0.00 0.00 92 1011.3
20260509083112 0 0.0 0.0 0.00 0.00 0.00 1011.1
20260509082611 0 0.0 0.0 0.00 0.00 0.00 1011.4
20260509082107 52 310 0.0 0.0 0.00 0.00 0.00 91 1011.4
20260509081605 52 310 0.0 0.0 0.00 0.00 0.00 91 1011.3
20260509081102 52 310 0.0 0.0 0.00 0.00 0.00 91 1011.2
20260509080600 52 310 0.0 0.0 0.00 0.00 0.00 91 1011.1
20260509080057 52 309 0.0 0.0 0.00 0.00 0.00 91 1011.2
20260509075554 52 309 0.0 0.0 0.00 0.00 0.00 92 1011.1
20260509075052 52 310 0.0 0.0 0.00 0.00 0.00 91 1011.3
20260509074549 52 310 0.0 0.0 0.00 0.00 0.00 92 1011.1
20260509074045 52 310 0.0 1.0 0.00 0.00 0.00 92 1011.2
20260509073542 52 310 0.0 1.0 0.00 0.00 0.00 92 1011.4
20260509073038 52 144 0.0 0.0 0.00 0.00 0.00 92 1010.9
20260509072535 52 144 0.0 0.0 0.00 0.00 0.00 92 1011.3
20260509072032 52 144 0.0 0.0 0.00 0.00 0.00 92 1010.7
20260509071528 52 144 0.0 0.0 0.00 0.00 0.00 89 1010.6
20260509071026 52 144 0.0 0.0 0.00 0.00 0.00 89 1010.7
20260509070523 52 144 0.0 0.0 0.00 0.00 0.00 89 1010.6
20260509070019 52 144 0.0 0.0 0.00 0.00 0.00 90 1010.5
20260509065514 52 144 0.0 0.0 0.00 0.00 0.00 90 1010.5
20260509065011 52 144 0.0 0.0 0.00 0.00 0.00 90 1010.5
20260509064509 52 144 0.0 0.0 0.00 0.00 0.00 90 1010.4
20260509064007 52 144 0.0 0.0 0.00 0.00 0.00 91 1010.6
20260509063502 53 144 0.0 0.0 0.00 0.00 0.00 91 1010.6
20260509062959 52 144 0.0 0.0 0.00 0.00 0.00 89 1010.5
20260509062456 52 144 0.0 0.0 0.00 0.00 0.00 88 1010.6
20260509061954 52 144 0.0 0.0 0.00 0.00 0.00 88 1010.6
20260509061451 52 144 0.0 0.0 0.00 0.00 0.00 88 1010.7
20260509060948 52 144 0.0 0.0 0.00 0.00 0.00 88 1010.6
20260509060446 52 144 0.0 0.0 0.00 0.00 0.00 88 1010.7
20260509055941 53 144 0.0 0.0 0.00 0.00 0.00 89 1010.7
20260509055436 52 144 0.0 0.0 0.00 0.00 0.00 88 1010.9
20260509054933 52 144 0.0 0.0 0.00 0.00 0.00 88 1011.2
20260509054430 53 144 0.0 0.0 0.00 0.00 0.00 90 1010.8
20260509053928 52 144 0.0 0.0 0.00 0.00 0.00 88 1011.1
20260509053426 52 144 0.0 0.0 0.00 0.00 0.00 89 1011.1
20260509052923 52 144 0.0 0.0 0.00 0.00 0.00 89 1010.9
20260509052420 53 144 0.0 0.0 0.00 0.00 0.00 90 1011.1
20260509051918 52 144 0.0 0.0 0.00 0.00 0.00 88 1011.3
20260509051416 52 144 0.0 0.0 0.00 0.00 0.00 88 1011.2
20260509050912 53 144 0.0 0.0 0.00 0.00 0.00 87 1010.9
20260509050409 53 144 0.0 0.0 0.00 0.00 0.00 86 1011.1
20260509045906 53 144 0.0 0.0 0.00 0.00 0.00 85 1010.8
20260509045403 53 144 0.0 0.0 0.00 0.00 0.00 86 1011.1
20260509044900 53 144 0.0 0.0 0.00 0.00 0.00 88 1011.1
20260509044358 53 144 0.0 0.0 0.00 0.00 0.00 89 1010.9
20260509043854 53 144 0.0 0.0 0.00 0.00 0.00 89 1011.1
20260509043350 53 144 0.0 0.0 0.00 0.00 0.00 88 1011.2
20260509042846 53 144 0.0 0.0 0.00 0.00 0.00 86 1011.2
20260509042343 53 144 0.0 0.0 0.00 0.00 0.00 85 1011.4
20260509041840 53 144 0.0 0.0 0.00 0.00 0.00 87 1011.2
20260509041336 53 144 0.0 0.0 0.00 0.00 0.00 90 1011.2
20260509040835 53 144 0.0 0.0 0.00 0.00 0.00 90 1011.4
20260509040332 53 144 0.0 0.0 0.00 0.00 0.00 88 1011.4
20260509035829 53 144 0.0 0.0 0.00 0.00 0.00 88 1011.5
20260509035326 53 144 0.0 0.0 0.00 0.00 0.00 89 1011.4
20260509034822 53 144 0.0 0.0 0.00 0.00 0.00 87 1011.4
20260509034320 53 144 0.0 0.0 0.00 0.00 0.00 86 1011.4
20260509033817 54 144 0.0 0.0 0.00 0.00 0.00 87 1011.6
20260509033314 54 144 0.0 0.0 0.00 0.00 0.00 87 1011.6
20260509032811 54 144 0.0 0.0 0.00 0.00 0.00 84 1011.6
20260509032308 54 144 0.0 0.0 0.00 0.00 0.00 84 1011.7
20260509031806 54 144 0.0 0.0 0.00 0.00 0.00 84 1011.7
20260509031303 54 144 0.0 0.0 0.00 0.00 0.00 84 1011.6
20260509030800 54 144 0.0 0.0 0.00 0.00 0.00 84 1011.7
20260509030258 54 144 0.0 0.0 0.00 0.00 0.00 84 1011.8
20260509025754 54 144 0.0 0.0 0.00 0.00 0.00 84 1012.0
20260509025250 54 144 0.0 0.0 0.00 0.00 0.00 85 1011.9
20260509024746 54 144 0.0 0.0 0.00 0.00 0.00 83 1011.9
20260509024242 54 144 0.0 0.0 0.00 0.00 0.00 82 1011.7
20260509023739 54 144 0.0 0.0 0.00 0.00 0.00 82 1012.0
20260509023236 54 144 0.0 0.0 0.00 0.00 0.00 83 1012.1
20260509022732 54 144 0.0 0.0 0.00 0.00 0.00 83 1012.0
20260509022230 54 144 0.0 0.0 0.00 0.00 0.00 85 1011.9
20260509021727 55 144 0.0 0.0 0.00 0.00 0.00 86 1011.9
20260509021224 55 144 0.0 0.0 0.00 0.00 0.00 82 1012.0
20260509020722 55 144 0.0 0.0 0.00 0.00 0.00 80 1011.8
20260509020219 55 144 0.0 0.0 0.00 0.00 0.00 81 1011.8
20260509015717 55 144 0.0 0.0 0.00 0.00 0.00 84 1011.9
20260509015215 55 144 0.0 0.0 0.00 0.00 0.00 83 1012.0
20260509014711 55 144 0.0 0.0 0.00 0.00 0.00 84 1011.8
20260509014208 55 144 0.0 0.0 0.00 0.00 0.00 81 1011.9
20260509013705 56 144 0.0 0.0 0.00 0.00 0.00 79 1011.7
20260509013200 56 144 0.0 0.0 0.00 0.00 0.00 81 1011.9
20260509012657 56 144 0.0 0.0 0.00 0.00 0.00 79 1011.8
20260509012154 56 144 0.0 0.0 0.00 0.00 0.00 78 1011.8
20260509011652 56 144 0.0 0.0 0.00 0.00 0.00 77 1011.7
20260509011149 56 144 0.0 0.0 0.00 0.00 0.00 77 1011.8
20260509010647 57 144 0.0 0.0 0.00 0.00 0.00 78 1011.9
20260509010143 57 144 0.0 0.0 0.00 0.00 0.00 77 1011.6
20260509005641 57 144 0.0 0.0 0.00 0.00 0.00 74 1011.8
20260509005137 57 144 0.0 0.0 0.00 0.00 0.00 72 1011.4
20260509004633 57 144 0.0 0.0 0.00 0.00 0.00 78 1011.5
20260509004130 57 144 0.0 0.0 0.00 0.00 0.00 77 1011.5
20260509003628 57 144 0.0 0.0 0.00 0.00 0.00 75 1011.4
20260509003125 57 143 0.0 0.0 0.00 0.00 0.00 74 1011.4
20260509002623 57 144 0.0 0.0 0.00 0.00 0.00 70 1011.4
20260509002120 58 144 0.0 0.0 0.00 0.00 0.00 73 1011.6
20260509001618 58 143 0.0 1.0 0.00 0.00 0.00 68 1011.5
20260509001113 58 143 0.0 1.0 0.00 0.00 0.00 67 1011.5
20260509000612 60 152 1.0 2.0 0.00 0.00 0.00 65 1011.4
20260509000108 62 315 0.0 2.0 0.00 0.00 0.00 60 1010.9
20260508235605 62 130 0.0 0.0 0.00 0.00 0.00 63 1010.7
20260508235101 63 184 0.0 2.0 0.00 0.00 0.00 60 1011.2
20260508234559 64 190 0.0 0.0 0.00 0.00 0.00 54 1011.3
20260508234055 64 150 0.0 2.0 0.00 0.00 0.00 57 1011.5
20260508233550 65 317 1.0 2.0 0.00 0.00 0.00 42 1011.3
20260508233047 65 252 1.0 2.0 0.00 0.00 0.00 53 1011.2
20260508232543 66 323 0.0 2.0 0.00 0.00 0.00 45 1011.1
20260508232040 67 224 1.0 2.0 0.00 0.00 0.00 42 1011.2
20260508231538 67 271 1.0 3.0 0.00 0.00 0.00 40 1011.3
20260508231035 67 298 4.0 4.0 0.00 0.00 0.00 40 1011.4
20260508230532 67 309 4.0 4.0 0.00 0.00 0.00 38 1011.3
20260508230028 67 314 3.0 4.0 0.00 0.00 0.00 40 1011.2
20260508225525 67 220 2.0 4.0 0.00 0.00 0.00 43 1011.2
20260508225022 68 236 1.0 3.0 0.00 0.00 0.00 39 1010.9
20260508224520 68 312 3.0 6.0 0.00 0.00 0.00 37 1011.3
20260508224017 68 219 2.0 4.0 0.00 0.00 0.00 38 1011.2
20260508223515 67 307 5.0 8.0 0.00 0.00 0.00 38 1011.3
20260508223012 68 275 3.0 8.0 0.00 0.00 0.00 37 1011.2
20260508222509 69 258 0.0 1.0 0.00 0.00 0.00 39 1011.5
20260508222006 67 231 2.0 3.0 0.00 0.00 0.00 38 1011.3
20260508221502 67 243 5.0 6.0 0.00 0.00 0.00 39 1011.5
20260508220958 67 260 0.0 1.0 0.00 0.00 0.00 39 1011.5
20260508220455 67 270 2.0 3.0 0.00 0.00 0.00 39 1011.3
20260508215951 67 258 4.0 7.0 0.00 0.00 0.00 37 1011.5
20260508215448 69 276 6.0 8.0 0.00 0.00 0.00 38 1011.2
20260508214944 71 311 2.0 3.0 0.00 0.00 0.00 34 1011.4
20260508214443 69 309 3.0 3.0 0.00 0.00 0.00 36 1011.3
20260508213938 67 295 2.0 6.0 0.00 0.00 0.00 39 1011.3
20260508213436 67 302 3.0 6.0 0.00 0.00 0.00 39 1011.3
20260508212931 67 253 2.0 7.0 0.00 0.00 0.00 40 1011.3
20260508212428 69 305 4.0 13.0 0.00 0.00 0.00 37 1011.6
20260508211924 70 340 2.0 9.0 0.00 0.00 0.00 37 1011.6
20260508211420 70 322 4.0 8.0 0.00 0.00 0.00 38 1011.5
20260508210917 69 310 9.0 13.0 0.00 0.00 0.00 36 1011.5
20260508210414 69 174 2.0 6.0 0.00 0.00 0.00 38 1011.4
20260508205910 69 312 4.0 7.0 0.00 0.00 0.00 35 1011.7
20260508205407 69 311 6.0 9.0 0.00 0.00 0.00 38 1011.8
20260508204903 69 200 3.0 9.0 0.00 0.00 0.00 39 1011.8
20260508204401 69 305 8.0 11.0 0.00 0.00 0.00 38 1011.6
20260508203856 70 301 4.0 7.0 0.00 0.00 0.00 43 1011.7
20260508203353 69 48 3.0 10.0 0.00 0.00 0.00 35 1012.0
20260508202848 70 315 6.0 8.0 0.00 0.00 0.00 39 1012.0
20260508202346 69 237 4.0 4.0 0.00 0.00 0.00 37 1012.4
20260508201843 69 309 2.0 4.0 0.00 0.00 0.00 36 1012.3
20260508201340 69 247 5.0 7.0 0.00 0.00 0.00 39 1012.4
20260508200836 68 244 6.0 7.0 0.00 0.00 0.00 39 1012.5
20260508200333 70 287 4.0 4.0 0.00 0.00 0.00 36 1012.5
20260508195829 68 313 1.0 2.0 0.00 0.00 0.00 39 1012.5
20260508195326 67 160 2.0 6.0 0.00 0.00 0.00 40 1012.9
20260508194822 66 309 3.0 6.0 0.00 0.00 0.00 40 1012.9
20260508194319 66 269 4.0 7.0 0.00 0.00 0.00 40 1013.2
20260508193816 66 297 3.0 4.0 0.00 0.00 0.00 43 1013.2
20260508193313 67 307 8.0 10.0 0.00 0.00 0.00 40 1013.3
20260508192808 69 316 5.0 11.0 0.00 0.00 0.00 38 1013.1
20260508192306 67 175 4.0 9.0 0.00 0.00 0.00 39 1013.2
20260508191803 67 314 2.0 8.0 0.00 0.00 0.00 38 1013.3
20260508191300 67 311 8.0 11.0 0.00 0.00 0.00 43 1013.3
20260508190757 67 241 3.0 4.0 0.00 0.00 0.00 40 1013.6
20260508190253 67 303 4.0 14.0 0.00 0.00 0.00 41 1013.6
20260508185749 67 248 6.0 7.0 0.00 0.00 0.00 40 1013.9
20260508185247 67 228 6.0 9.0 0.00 0.00 0.00 46 1013.8
20260508184744 68 311 6.0 13.0 0.00 0.00 0.00 45 1014.0
20260508184241 68 319 4.0 4.0 0.00 0.00 0.00 44 1014.1
20260508183738 67 313 1.0 6.0 0.00 0.00 0.00 43 1013.9
20260508183234 67 301 2.0 6.0 0.00 0.00 0.00 39 1013.9
20260508182730 66 267 6.0 13.0 0.00 0.00 0.00 41 1014.2
20260508182227 66 312 7.0 13.0 0.00 0.00 0.00 41 1014.3
20260508181723 65 308 8.0 15.0 0.00 0.00 0.00 43 1014.4
20260508181220 66 314 8.0 13.0 0.00 0.00 0.00 45 1014.6
20260508180717 65 292 6.0 9.0 0.00 0.00 0.00 43 1014.5
20260508180214 65 305 6.0 9.0 0.00 0.00 0.00 46 1014.4
20260508175710 65 233 6.0 9.0 0.00 0.00 0.00 41 1014.6
20260508175207 65 178 4.0 7.0 0.00 0.00 0.00 39 1014.7
20260508174705 64 298 3.0 9.0 0.00 0.00 0.00 42 1014.6
20260508174201 65 354 1.0 7.0 0.00 0.00 0.00 43 1014.5
20260508173658 65 281 3.0 6.0 0.00 0.00 0.00 41 1014.6
20260508173154 65 251 6.0 8.0 0.00 0.00 0.00 45 1014.7
20260508172652 64 250 2.0 3.0 0.00 0.00 0.00 43 1014.7
20260508172149 64 309 4.0 10.0 0.00 0.00 0.00 43 1014.9
20260508171645 63 248 5.0 15.0 0.00 0.00 0.00 44 1015.1
20260508171141 64 256 5.0 13.0 0.00 0.00 0.00 43 1015.2
20260508170638 65 329 4.0 7.0 0.00 0.00 0.00 45 1015.2
20260508170136 65 295 4.0 11.0 0.00 0.00 0.00 46 1015.3
20260508165633 64 325 6.0 15.0 0.00 0.00 0.00 45 1015.5
20260508165131 64 326 7.0 10.0 0.00 0.00 0.00 46 1015.7
20260508164627 65 318 11.0 14.0 0.00 0.00 0.00 41 1016.0
20260508164123 63 298 5.0 7.0 0.00 0.00 0.00 43 1015.8
20260508163621 62 184 4.0 8.0 0.00 0.00 0.00 44 1016.0
20260508163117 62 272 4.0 16.0 0.00 0.00 0.00 45 1016.0
20260508162614 63 299 1.0 7.0 0.00 0.00 0.00 46 1016.0
20260508162112 62 315 8.0 10.0 0.00 0.00 0.00 45 1016.0
20260508161608 61 309 5.0 9.0 0.00 0.00 0.00 46 1016.2
20260508161106 61 316 3.0 10.0 0.00 0.00 0.00 43 1016.2
20260508160604 61 257 6.0 9.0 0.00 0.00 0.00 46 1016.4
20260508160100 62 312 8.0 9.0 0.00 0.00 0.00 46 1016.1
20260508155557 62 312 6.0 9.0 0.00 0.00 0.00 43 1016.1
20260508155054 62 312 6.0 16.0 0.00 0.00 0.00 46 1016.2
20260508154551 64 323 6.0 9.0 0.00 0.00 0.00 41 1016.4